User: anonymous   Login
Location: Mentone
(34.5413°N, 85.5351°W)
Time: 22:47:02
(UTC-05:00)
Language:

ATLAS 5 CENTAUR R/B - Orbit

View from above orbital plane
View from above orbital plane
View from above satellite
View from above satellite

Ground track
Ground track

The orbit data is extracted from the following two-line orbital elements,

1 31702U 07027B   17206.87253324 0.00000200  00000-0  64771-4 0    03
2 31702  63.3612 110.1497 0282000   4.3801 355.6199 14.18573278    01
Epoch (UTC): 25 July 2017 20:56:26
Eccentricity: 0.0282000
inclination: 63.3612°
perigee height: 627 km
apogee height: 1033 km
right ascension of ascending node: 110.1497°
argument of perigee: 4.3801°
revolutions per day: 14.18573278
mean anomaly at epoch: 355.6199°
orbit number at epoch: 0

The dashed part of the orbit path shows where the satellite is in the earth's shadow,  

DLR